[[{"header":{"parameterUnit":"m.s-1","parameterCategory":1,"la1":30.2991,"la2":30.254,"lo1":-89.0895,"lo2":-89.0444,"dy":0.0017,"dx":0.0017,"nx":28,"ny":28,"refTime":"2025-04-27T09:00:00:Z","depth":0,"parameterNumber":2,"parameterNumberName":"U-component_of_WINDS"},"data":[0,0,0,0,0,0,0,0,0,0,0,0,0,0,0,0,0,0,0,0,0,0,0,0,0,0,0,0,0,0,0,0,0,0,0,0,0,0,0,0,0,0,0,0,0,0,0,0,0,0,0,0,0,0,0,0,0,0,1.8155,1.8155,0,1.8186,1.8187,1.8187,1.8152,1.8151,1.815,1.8149,1.8178,1.818,1.8182,0,0,0,0,0,0,0,0,0,0,0,0,0,1.8061,1.8062,1.8155,1.8155,1.8155,1.8186,1.8187,1.8187,1.8153,1.8151,1.8149,1.8148,1.8177,1.818,1.8182,0,0,0,0,0,0,0,0,0,0,0,0,0,1.8098,1.8063,1.8154,1.8142,1.8141,1.8186,1.8187,1.8187,1.8153,1.8151,1.8149,1.8147,1.8176,1.8179,1.8182,1.824,0,0,1.8192,1.8193,0,0,0,0,0,0,0,0,1.8096,1.8101,1.8143,1.8143,1.8142,1.8163,1.8164,1.8205,1.8153,1.8148,1.8149,1.8146,1.8174,1.8178,1.8188,1.8242,1.8243,1.8192,1.8194,1.8195,1.8196,0,0,0,0,0,0,0,1.8093,1.81,1.8167,1.8144,1.8143,1.8134,1.8137,1.8172,1.8172,1.8149,1.8146,1.8151,1.8174,1.8185,1.8188,1.8243,1.8192,1.8194,1.8196,1.8197,1.8344,1.8346,0,0,0,0,0,0,1.8092,1.8098,1.8166,1.8168,1.8114,1.8137,1.814,1.8159,1.8172,1.8172,1.8152,1.8149,1.8181,1.8185,1.8189,1.8256,1.8195,1.8198,1.8199,1.8342,1.8345,1.8347,0,0,0,0,0,0,1.809,1.8099,1.8165,1.8132,1.814,1.8141,1.8161,1.816,1.8171,1.8174,1.8174,1.8164,1.8179,1.8185,1.8228,1.8256,1.8199,1.8202,1.834,1.8343,1.8346,1.8391,0,0,0,0,0,0,1.8088,1.8098,1.8121,1.8133,1.8142,1.8204,1.8163,1.8162,1.8177,1.8173,1.8185,1.8185,1.8178,1.8223,1.8231,1.8259,1.8204,1.8337,1.8341,1.8345,1.8387,1.8395,1.8402,0,0,0,0,0,1.8085,1.8132,1.8123,1.8131,1.817,1.8206,1.821,1.8202,1.818,1.8201,1.8203,1.8185,1.8253,1.8228,1.8236,1.8266,1.8335,1.834,1.8344,1.8383,1.8393,1.8402,0,0,0,0,0,0,1.8123,1.8134,1.8123,1.8176,1.819,1.82,1.8227,1.8214,1.8234,1.8229,1.8217,1.822,1.8265,1.827,1.8243,1.8322,1.829,1.8296,1.8316,1.8326,1.8334,1.8331,1.8207,0,0,0,0,0,1.8138,1.8166,1.8174,1.822,1.8228,1.8227,1.8242,1.8234,1.8248,1.8253,1.8258,1.8272,1.8296,1.8312,1.8334,1.8388,1.8389,1.8413,1.842,1.8427,1.8432,1.8458,1.8468,1.8362,1.8362,1.8362,0,0,1.8168,1.8177,1.8196,1.8228,1.8238,1.8266,1.8232,1.8264,1.8284,1.8258,1.8298,1.8303,1.8316,1.8364,1.8386,1.837,1.8462,1.8433,1.8438,1.8439,1.8464,1.8474,1.8483,1.8366,1.8365,1.8365,0,0,1.8237,1.8248,1.8287,1.8298,1.8314,1.8313,1.8322,1.8334,1.8336,1.8377,1.8357,1.8381,1.8424,1.8434,1.8444,1.8518,1.85,1.8525,1.8565,1.8591,1.8599,1.8607,1.863,1.8639,1.8531,1.8531,1.8531,0,1.8272,1.8315,1.8308,1.8341,1.8355,1.8334,1.8372,1.8383,1.8405,1.8414,1.8397,1.8449,1.8457,1.8506,1.8523,1.8534,1.8542,1.8523,1.8599,1.8606,1.8613,1.8635,1.8644,1.8534,1.8533,1.8533,1.8533,0,1.8356,1.8387,1.8416,1.8438,1.8456,1.8491,1.8488,1.8506,1.8498,1.8498,1.8539,1.8548,1.8571,1.8583,1.8575,1.863,1.862,1.8601,1.8568,1.8626,1.8646,1.8655,1.8538,1.8537,1.8536,1.8535,0,0,1.8448,1.8467,1.8478,1.8487,1.8503,1.8526,1.856,1.8584,1.8598,1.8615,1.8641,1.8678,1.8661,1.8673,1.8666,1.8689,1.8744,1.8667,1.8667,1.8679,1.8803,1.8815,1.8825,1.8734,1.8735,1.8737,1.8801,0,1.8516,1.8575,1.857,1.8626,1.8652,1.8633,1.8663,1.8675,1.8677,1.8699,1.87,1.8725,1.8702,1.8708,1.8731,1.8732,1.8768,1.8728,1.8756,1.8757,1.875,1.8836,1.8849,1.8909,1.8809,1.8811,1.8812,0,1.8602,1.8622,1.868,1.8692,1.8703,1.8729,1.875,1.8772,1.8785,1.8785,1.8799,1.8787,1.882,1.8789,1.8832,1.8805,1.8817,1.8819,1.8821,1.8821,1.8786,1.8836,1.8929,1.8937,1.8825,1.8824,1.8823,0,1.866,1.8701,1.8741,1.875,1.8766,1.8784,1.8791,1.8803,1.8817,1.8835,1.8844,1.8865,1.8876,1.8893,1.8887,1.8865,1.8931,1.89,1.8929,1.8929,1.8941,1.894,1.9034,1.8954,1.8954,1.8954,1.8953,0,1.8734,1.877,1.8767,1.8792,1.8831,1.8824,1.8863,1.8868,1.8878,1.8902,1.8888,1.891,1.8902,1.8924,1.892,1.8955,1.8961,1.896,1.8958,1.896,1.896,1.8965,1.896,1.8956,1.8955,1.8955,1.8955,0,1.8804,1.8804,1.8846,1.8857,1.8861,1.8889,1.8898,1.892,1.8921,1.8951,1.8958,1.8959,1.8983,1.898,1.9008,1.9005,1.9048,1.9043,1.9044,1.9041,1.907,1.9066,1.9169,1.9181,1.9095,1.9096,1.9096,0,1.8849,1.8877,1.8891,1.8906,1.8915,1.894,1.8954,1.8949,1.8965,1.8982,1.9001,1.9025,1.9043,1.9084,1.9086,1.9106,1.9099,1.9134,1.9102,1.9103,1.9096,1.9094,1.9095,1.9139,1.914,1.9141,1.9142,0,1.893,1.8929,1.8951,1.8973,1.8991,1.9008,1.9023,1.9036,1.9032,1.905,1.9075,1.909,1.9118,1.9141,1.916,1.9166,1.9152,1.9152,1.9159,1.916,1.9158,1.9157,1.9058,1.9149,1.9148,1.9148,1.9147,1.9147,1.8987,1.901,1.9023,1.9048,1.9059,1.9074,1.9095,1.9099,1.912,1.9143,1.9139,1.9167,1.9179,1.9204,1.9212,1.9233,1.922,1.9231,1.9233,1.9236,1.9238,1.9158,1.9236,1.9236,1.9236,1.9236,1.9236,0,1.9064,1.9072,1.9096,1.9117,1.9137,1.9124,1.9141,1.9157,1.9182,1.9195,1.9213,1.9242,1.9264,1.9269,1.9289,1.9305,1.9299,1.931,1.9308,1.9309,1.9249,1.924,1.9315,1.9315,1.9315,1.9315,1.9315,1.9315,1.9107,1.9144,1.9144,1.9186,1.9194,1.9222,1.9232,1.9244,1.9255,1.9287,1.9306,1.9309,1.9318,1.934,1.9359,1.9359,1.9366,1.938,1.9378,1.9321,1.9313,1.9306,1.9296,1.9382,1.9382,1.9435,1.9435,1.9436]},{"header":{"parameterUnit":"m.s-1","parameterCategory":1,"la1":30.2991,"la2":30.254,"lo1":-89.0895,"lo2":-89.0444,"dy":0.0017,"dx":0.0017,"nx":28,"ny":28,"refTime":"2025-04-27T09:00:00:Z","depth":0,"parameterNumber":3,"parameterNumberName":"V-component_of_WINDS"},"data":[0,0,0,0,0,0,0,0,0,0,0,0,0,0,0,0,0,0,0,0,0,0,0,0,0,0,0,0,0,0,0,0,0,0,0,0,0,0,0,0,0,0,0,0,0,0,0,0,0,0,0,0,0,0,0,0,0,0,0.3575,0.3576,0,0.3624,0.3625,0.3625,0.3621,0.3621,0.362,0.3619,0.367,0.3672,0.3674,0,0,0,0,0,0,0,0,0,0,0,0,0,0.3479,0.3481,0.3575,0.3576,0.3577,0.3624,0.3625,0.3625,0.3621,0.3621,0.362,0.3619,0.3669,0.3672,0.3674,0,0,0,0,0,0,0,0,0,0,0,0,0,0.3524,0.3482,0.3575,0.358,0.3581,0.3624,0.3625,0.3626,0.3622,0.3621,0.3619,0.3618,0.3669,0.3671,0.3675,0.3716,0,0,0.3684,0.3685,0,0,0,0,0,0,0,0,0.3521,0.3527,0.3579,0.358,0.3581,0.3615,0.3609,0.3656,0.3622,0.3606,0.3619,0.3618,0.3653,0.3657,0.3669,0.3718,0.372,0.3684,0.3686,0.3687,0.3688,0,0,0,0,0,0,0,0.3518,0.3525,0.3595,0.358,0.3581,0.358,0.3585,0.3618,0.3635,0.3608,0.3607,0.3613,0.3653,0.3666,0.367,0.3721,0.3684,0.3687,0.3689,0.369,0.3805,0.3806,0,0,0,0,0,0,0.3514,0.3523,0.3593,0.3596,0.3548,0.3583,0.3589,0.3606,0.3635,0.3638,0.3614,0.3613,0.3661,0.3666,0.3672,0.3721,0.3687,0.369,0.3692,0.3804,0.3805,0.3807,0,0,0,0,0,0,0.3512,0.352,0.3591,0.3559,0.3568,0.3586,0.3605,0.3607,0.362,0.364,0.3643,0.3624,0.366,0.3667,0.3704,0.3723,0.3692,0.3694,0.3803,0.3804,0.3806,0.3821,0,0,0,0,0,0,0.3509,0.3519,0.3535,0.356,0.357,0.3623,0.3606,0.3609,0.3625,0.3624,0.365,0.3653,0.366,0.37,0.3707,0.3726,0.3697,0.3801,0.3803,0.3806,0.3819,0.3823,0.3826,0,0,0,0,0,0.3506,0.3538,0.3536,0.3545,0.359,0.3624,0.363,0.3638,0.3626,0.3642,0.3655,0.3652,0.3719,0.3704,0.3712,0.3732,0.38,0.3803,0.3805,0.3817,0.3822,0.3826,0,0,0,0,0,0,0.3516,0.3541,0.354,0.3581,0.36,0.3624,0.3644,0.3643,0.3666,0.3664,0.3673,0.3678,0.3716,0.3728,0.371,0.3773,0.3758,0.3763,0.3764,0.3769,0.3773,0.3769,0.3699,0,0,0,0,0,0.3523,0.3548,0.3569,0.3603,0.3613,0.3627,0.3642,0.3646,0.3667,0.3675,0.369,0.3711,0.3736,0.3753,0.3778,0.382,0.3825,0.3838,0.3842,0.3845,0.3849,0.3871,0.3877,0.3816,0.3816,0.3816,0,0,0.3538,0.3555,0.3571,0.3606,0.3622,0.3648,0.3634,0.3662,0.3682,0.368,0.3715,0.3727,0.375,0.379,0.3808,0.3801,0.3867,0.3848,0.3851,0.3853,0.3875,0.388,0.3886,0.3818,0.3817,0.3817,0,0,0.3579,0.3594,0.3624,0.3639,0.3663,0.3671,0.3678,0.3702,0.3709,0.3745,0.3744,0.3767,0.3811,0.3827,0.3841,0.3886,0.3884,0.3894,0.3915,0.3936,0.3941,0.3945,0.3961,0.3967,0.3898,0.3898,0.3898,0,0.3594,0.3633,0.364,0.3668,0.3683,0.3681,0.3711,0.3726,0.3757,0.3768,0.3759,0.3814,0.3829,0.3872,0.3883,0.3895,0.3903,0.3892,0.394,0.3944,0.3948,0.3963,0.3969,0.3899,0.3899,0.3899,0.3899,0,0.3651,0.3678,0.37,0.3728,0.3746,0.3775,0.3785,0.3803,0.3804,0.3814,0.385,0.3868,0.3896,0.3907,0.3909,0.395,0.3944,0.3938,0.3923,0.3955,0.3969,0.3975,0.3901,0.39,0.39,0.39,0,0,0.3701,0.3731,0.3739,0.3752,0.3777,0.3798,0.3826,0.3853,0.3868,0.3888,0.3912,0.3949,0.3943,0.3959,0.3963,0.3982,0.4015,0.3973,0.3973,0.398,0.4061,0.4066,0.4072,0.4014,0.4015,0.4016,0.4059,0,0.3744,0.3794,0.38,0.3845,0.387,0.3867,0.3892,0.391,0.3919,0.3942,0.3952,0.3978,0.3967,0.3977,0.3996,0.4007,0.4032,0.4004,0.4036,0.4038,0.4031,0.408,0.4085,0.4125,0.4064,0.4065,0.4066,0,0.3801,0.3822,0.3869,0.389,0.3901,0.3923,0.3947,0.3969,0.3989,0.3994,0.4011,0.4012,0.4041,0.4025,0.4065,0.4046,0.406,0.4067,0.4069,0.4073,0.4054,0.4085,0.4138,0.4144,0.4075,0.4074,0.4074,0,0.3832,0.3873,0.3906,0.3917,0.3942,0.3957,0.3968,0.3987,0.4002,0.4024,0.4034,0.4058,0.4072,0.4091,0.4099,0.4086,0.4138,0.4123,0.4144,0.4143,0.4155,0.4154,0.4211,0.4163,0.4163,0.4163,0.4163,0,0.3879,0.3908,0.392,0.394,0.3972,0.3978,0.401,0.4021,0.4037,0.4059,0.4059,0.408,0.4089,0.4111,0.4118,0.415,0.4156,0.4161,0.4162,0.4161,0.416,0.417,0.4168,0.4165,0.4164,0.4164,0.4164,0,0.392,0.3929,0.3965,0.3985,0.399,0.4013,0.403,0.405,0.4058,0.4087,0.4094,0.4107,0.4133,0.4143,0.4175,0.4179,0.4216,0.4215,0.4209,0.4209,0.423,0.4228,0.4295,0.4304,0.425,0.4251,0.4251,0,0.395,0.3972,0.3994,0.4008,0.402,0.4043,0.4059,0.4065,0.4081,0.4105,0.4122,0.4147,0.4168,0.421,0.4223,0.4247,0.4247,0.4269,0.4251,0.4248,0.4247,0.4246,0.4248,0.4272,0.4273,0.4273,0.4273,0,0.4001,0.4004,0.4026,0.4049,0.4067,0.4086,0.4105,0.4117,0.4126,0.4144,0.417,0.4186,0.4218,0.4244,0.4268,0.428,0.4278,0.4279,0.4285,0.4284,0.428,0.4282,0.4218,0.4278,0.4277,0.4277,0.4277,0.4276,0.4037,0.4056,0.4074,0.4099,0.4113,0.4129,0.4149,0.4159,0.4181,0.4207,0.4209,0.4238,0.4256,0.4289,0.4301,0.4323,0.4318,0.4327,0.4329,0.4331,0.4332,0.4276,0.4328,0.4328,0.4328,0.4328,0.4328,0,0.4089,0.41,0.4122,0.4147,0.4166,0.4162,0.4181,0.4197,0.4222,0.4239,0.426,0.4289,0.4314,0.4328,0.4352,0.4367,0.4367,0.4374,0.4373,0.4375,0.4336,0.4329,0.4373,0.4373,0.4373,0.4373,0.4373,0.4373,0.4118,0.415,0.4155,0.4193,0.4204,0.4231,0.4243,0.4258,0.4272,0.4305,0.4325,0.4334,0.4349,0.4375,0.4397,0.44,0.4409,0.4416,0.4419,0.4383,0.4378,0.4374,0.4366,0.4418,0.4418,0.4456,0.4457,0.4457]}]]